{"data":{"norad_id":68309,"epoch":"2026-05-24T20:41:55.796640Z","epoch_age_seconds":90403,"freshness":"FRESH","line1":"1 68309U 26057R   26144.86245135  .00176805  00000+0  11619-2 0  9993","line2":"2 68309  97.2844 271.0516 0004436  56.5481 303.6208 15.75181570 10272","mean_motion":15.7518157,"eccentricity":0.0004436,"inclination_deg":97.2844,"raan_deg":271.0516,"arg_perigee_deg":56.5481,"mean_anomaly_deg":303.6208,"bstar":0.0011619,"rev_number":1027,"period_min":91.418032525609,"perigee_km":341.13256172587,"apogee_km":347.09654330326,"semimajor_km":6722.2515525146,"source":"CELESTRAK","updated_at":"2026-05-25T13:38:21.918749Z"}}